Location: San Antonio
(29.4240°N, 98.4930°W)
Time: 05:39:07
(UTC-05:00)

ISS - All Passes

Search period start: 26 May 2016 00:00
Search period end: 05 June 2016 00:00
Orbit: 402 x 404 km, 51.6° (Epoch: 26 May)

Date Brightness Start Highest point End Pass type
(mag) Time Alt. Az. Time Alt. Az. Time Alt. Az.
26 May - 05:26:35 10° N 05:28:37 15° NE 05:30:39 10° ENE visible
26 May - 07:02:08 10° WNW 07:05:08 34° SW 07:08:07 10° SSE daylight
26 May - 22:00:31 10° SW 22:03:45 61° NW 22:06:58 10° NE visible
27 May - 06:09:12 10° NW 06:12:28 90° SW 06:15:42 10° SE visible
27 May - 21:07:52 10° SSW 21:11:02 51° SE 21:14:12 10° NE visible
27 May - 22:46:20 10° WNW 22:47:41 12° NW 22:49:01 10° N visible
28 May - 05:16:39 10° NNW 05:19:42 37° NE 05:22:44 10° ESE visible
28 May - 06:54:32 10° WSW 06:55:50 12° SW 06:57:08 10° SSW daylight
28 May - 20:15:51 10° S 20:18:24 21° SE 20:20:57 10° ENE daylight
28 May - 21:52:07 10° W 21:54:44 22° NW 21:57:21 10° NNE visible
29 May - 04:24:28 10° N 04:26:50 18° NE 04:29:11 10° E visible
29 May - 06:00:27 10° WNW 06:03:15 27° SW 06:06:02 10° S visible
29 May - 20:58:44 10° WSW 21:01:53 46° NW 21:05:03 10° NNE visible
30 May - 03:33:34 10° NNE 03:33:51 10° NE 03:34:07 10° NE visible
30 May - 05:07:21 10° NW 05:10:35 68° SW 05:13:48 10° SE visible
30 May - 20:05:54 10° SW 20:09:08 69° SE 20:12:23 10° NE daylight
30 May - 21:45:46 10° NW 21:45:53 10° NNW 21:45:59 10° NNW visible
31 May - 04:14:40 10° NNW 04:17:50 47° NE 04:20:59 10° ESE night (unlit)
31 May - 19:13:39 10° S 19:16:27 27° SE 19:19:17 10° ENE daylight
31 May - 20:50:32 10° W 20:52:53 18° NW 20:55:15 10° N visible
01 Jun - 03:22:21 10° NNW 03:24:58 22° NE 03:27:36 10° E night (unlit)
01 Jun - 04:58:47 10° WNW 05:01:18 21° SW 05:03:50 10° S night (unlit)
01 Jun - 18:22:30 10° SSE 18:23:51 12° SE 18:25:13 10° E daylight
01 Jun - 19:56:57 10° WSW 20:00:00 36° NW 20:03:03 10° NNE daylight
02 Jun - 02:30:39 10° N 02:32:00 12° NE 02:33:22 10° ENE night (unlit)
02 Jun - 04:05:29 10° NW 04:08:39 50° SW 04:11:48 10° SSE night (unlit)
02 Jun - 19:03:57 10° SW 19:07:12 89° NW 19:10:28 10° NE daylight
03 Jun - 03:12:41 10° NW 03:15:55 62° NE 03:19:07 10° SE night (unlit)
03 Jun - 18:11:29 10° SSW 18:14:29 35° SE 18:17:30 10° ENE daylight
03 Jun - 19:48:59 10° WNW 19:51:00 15° NW 19:53:01 10° N daylight
04 Jun - 02:20:14 10° NNW 02:23:04 27° NE 02:25:54 10° ESE night (unlit)
04 Jun - 03:57:09 10° W 03:59:19 17° SW 04:01:28 10° SSW night (unlit)
04 Jun - 17:19:50 10° SSE 17:21:51 15° SE 17:23:52 10° E daylight
04 Jun - 18:55:10 10° WSW 18:58:04 29° NW 19:00:58 10° NNE daylight
